Zurück zum Katalog

JD 2

AktivWissenschaftLEO
NORAD 14729·PAYLOAD·🇺🇸 United States

Gestartet Feb 5, 1984 von Vandenberg Space Force Base

Loading…

Nächste Überflüge (nächste 24 Stunden)

TLE

AktuellSource: Space-Track

Epoche: Sep 14, 2026, 15:34 UTC

1 14729U 84012D   26257.64904019  .00002065  00000-0  27230-3 0  9993
2 14729  63.3070 149.7678 0735632 130.1383 236.6522 13.76577547356227

Verfolge JD 2 in Echtzeit mit AllMySat

Download on the App Store